Weather History for Eastsound, WA

Change the Weather History Date:

Monday, February 25, 2013

  Actual Average (KBLI) Record (KBLI)
Temperature  
Mean Temperature 42 °F 42 °F  
Max Temperature 48 °F 49 °F 62 °F (1992)
Min Temperature 37 °F 34 °F 16 °F (2011)
Degree Days  
Heating Degree Days 22 23  
Month to date heating degree days 610  
Cooling Degree Days 0 0  
Month to date cooling degree days 0  
Year to date cooling degree days 0  
Moisture  
Dew Point 35 °F    
Average Humidity 71    
Maximum Humidity 93    
Minimum Humidity 54    
Precipitation  
Precipitation 0.02 in 0.10 in 1.22 in (1963)
Month to date precipitation 2.71  
Year to date precipitation 7.38  
Sea Level Pressure  
Sea Level Pressure 29.97 in    
Wind  
Wind Speed 12 mph (SSW)    
Max Wind Speed 22 mph    
Max Gust Speed 33 mph    
Visibility 9 miles    
Events Rain    
T = Trace of Precipitation, MM = Missing Value Source: NWS Daily Summary

Daily Weather History Graph

Daily Weather History Graph

Search for Another Location

Airport:

Trip Planner

Search our weather history database for the weather conditions in past years. The results will help you decide how hot, cold, wet, or windy it might be!

Date:

Astronomy

Feb. 25, 2013 Rise Set
Actual Time 7:00 AM PST 5:49 PM PST
Civil Twilight 6:28 AM PST 6:21 PM PST
Nautical Twilight 5:52 AM PST 6:57 PM PST
Astronomical Twilight 5:15 AM PST 7:34 PM PST
Moon 6:14 PM PST (2/25) 6:30 AM PST (2/25)
Length of Visible Light 11h 52m
Length of Day
10h 49m
Full, 100% of the Moon is Illuminated
Feb 25
Full
Feb 25
Full
Mar 4
Last Quarter
Mar 11
New
Mar 19
First Quarter

Hourly Weather History & Observations

Time (PST) Temp. Windchill Dew Point Humidity Pressure Visibility Wind Dir Wind Speed Gust Speed Precip Events Conditions
12:15 AM 44.6 °F 38.4 °F 37.4 °F 76% 29.82 in 10.0 mi South 12.7 mph 27.6 mph N/A   Mostly Cloudy
12:35 AM 44.6 °F 38.1 °F 35.6 °F 71% 29.82 in 10.0 mi South 13.8 mph 29.9 mph N/A   Mostly Cloudy
12:55 AM 44.6 °F 37.8 °F 37.4 °F 76% 29.81 in 10.0 mi South 15.0 mph 24.2 mph N/A Rain Light Rain
1:15 AM 44.6 °F 39.2 °F 37.4 °F 76% 29.82 in 8.0 mi South 10.4 mph 27.6 mph N/A Rain Light Rain
1:35 AM 42.8 °F 37.0 °F 37.4 °F 81% 29.82 in 8.0 mi South 10.4 mph 23.0 mph N/A Rain Light Rain
1:55 AM 41.0 °F 33.5 °F 39.2 °F 93% 29.82 in 7.0 mi South 13.8 mph 24.2 mph N/A Rain Light Rain
2:15 AM 41.0 °F 32.8 °F 39.2 °F 93% 29.83 in 4.0 mi SSW 16.1 mph 21.9 mph 0.01 in Rain Light Rain
2:35 AM 41.0 °F 33.9 °F 39.2 °F 93% 29.83 in 4.0 mi South 12.7 mph - 0.02 in   Overcast
2:55 AM 41.0 °F 33.9 °F 39.2 °F 93% 29.80 in 8.0 mi South 12.7 mph 19.6 mph 0.02 in   Mostly Cloudy
3:15 AM 41.0 °F 34.3 °F 39.2 °F 93% 29.79 in 10.0 mi South 11.5 mph 19.6 mph N/A   Mostly Cloudy
3:35 AM 41.0 °F 33.5 °F 39.2 °F 93% 29.79 in 10.0 mi SSW 13.8 mph 23.0 mph N/A   Mostly Cloudy
3:55 AM 41.0 °F 33.5 °F 39.2 °F 93% 29.79 in 10.0 mi South 13.8 mph 24.2 mph N/A   Scattered Clouds
4:15 AM 42.8 °F 36.6 °F 39.2 °F 87% 29.79 in 10.0 mi South 11.5 mph 24.2 mph N/A   Mostly Cloudy
4:35 AM 41.0 °F 33.9 °F 39.2 °F 93% 29.81 in 10.0 mi South 12.7 mph 23.0 mph N/A   Scattered Clouds
4:55 AM 41.0 °F 33.5 °F 37.4 °F 87% 29.81 in 10.0 mi SSW 13.8 mph 21.9 mph N/A   Partly Cloudy
5:15 AM 42.8 °F 34.8 °F 37.4 °F 81% 29.83 in 10.0 mi SSW 17.3 mph 20.7 mph N/A   Mostly Cloudy
5:35 AM 42.8 °F 35.1 °F 37.4 °F 81% 29.83 in 10.0 mi South 16.1 mph 21.9 mph N/A   Mostly Cloudy
5:55 AM 42.8 °F 34.8 °F 37.4 °F 81% 29.83 in 10.0 mi South 17.3 mph 24.2 mph N/A   Mostly Cloudy
6:15 AM 42.8 °F 34.8 °F 37.4 °F 81% 29.83 in 10.0 mi SSW 17.3 mph 26.5 mph N/A   Scattered Clouds
6:35 AM 42.8 °F 35.1 °F 37.4 °F 81% 29.84 in 10.0 mi SSW 16.1 mph 27.6 mph N/A   Partly Cloudy
6:55 AM 42.8 °F 33.8 °F 37.4 °F 81% 29.82 in 10.0 mi SSW 21.9 mph 27.6 mph N/A   Scattered Clouds
7:15 AM 41.0 °F 32.5 °F 37.4 °F 87% 29.82 in 10.0 mi SSW 17.3 mph 32.2 mph N/A   Mostly Cloudy
7:35 AM 42.8 °F 34.8 °F 37.4 °F 81% 29.81 in 10.0 mi South 17.3 mph 26.5 mph N/A   Mostly Cloudy
7:55 AM 42.8 °F 33.8 °F 37.4 °F 81% 29.80 in 10.0 mi South 21.9 mph 33.4 mph N/A   Scattered Clouds
8:15 AM 42.8 °F 33.8 °F 37.4 °F 81% 29.80 in 8.0 mi SSW 21.9 mph 32.2 mph N/A Rain Light Rain
8:35 AM 42.8 °F 34.8 °F 37.4 °F 81% 29.82 in 6.0 mi SSW 17.3 mph 26.5 mph N/A Rain Light Rain
9:15 AM 42.8 °F 36.2 °F 37.4 °F 81% 29.85 in 9.0 mi SSW 12.7 mph 26.5 mph N/A   Partly Cloudy
9:35 AM 44.6 °F 39.2 °F 37.4 °F 76% 29.86 in 8.0 mi SW 10.4 mph 16.1 mph N/A   Partly Cloudy
9:55 AM 44.6 °F 39.2 °F 37.4 °F 76% 29.88 in 8.0 mi SW 10.4 mph 19.6 mph N/A   Partly Cloudy
10:15 AM 44.6 °F 38.8 °F 35.6 °F 71% 29.89 in 5.0 mi SW 11.5 mph 19.6 mph N/A Rain Light Rain
10:35 AM 44.6 °F 39.7 °F 35.6 °F 71% 29.90 in 8.0 mi SW 9.2 mph - N/A Rain Light Rain
10:55 AM 44.6 °F 38.8 °F 35.6 °F 71% 29.91 in 9.0 mi SW 11.5 mph 20.7 mph N/A   Scattered Clouds
11:15 AM 46.4 °F 41.9 °F 35.6 °F 66% 29.92 in 9.0 mi SW 9.2 mph 17.3 mph N/A   Scattered Clouds
11:35 AM 46.4 °F 40.7 °F 35.6 °F 66% 29.93 in 9.0 mi SW 12.7 mph 17.3 mph N/A   Clear
11:55 AM 46.4 °F 41.5 °F 35.6 °F 66% 29.95 in 8.0 mi SW 10.4 mph 16.1 mph N/A   Clear
12:15 PM 48.2 °F - 33.8 °F 58% 29.95 in 9.0 mi SW 13.8 mph 25.3 mph N/A   Clear
12:35 PM 48.2 °F - 33.8 °F 58% 29.97 in 8.0 mi WSW 8.1 mph 17.3 mph N/A   Clear
12:55 PM 48.2 °F - 32.0 °F 54% 29.97 in 10.0 mi WSW 12.7 mph 18.4 mph N/A   Clear
1:15 PM 48.2 °F - 32.0 °F 54% 29.98 in 10.0 mi SW 12.7 mph 19.6 mph N/A   Clear
1:35 PM 48.2 °F - 32.0 °F 54% 29.99 in 10.0 mi WSW 12.7 mph 16.1 mph N/A   Clear
1:55 PM 48.2 °F - 32.0 °F 54% 30.00 in 10.0 mi WSW 9.2 mph 19.6 mph N/A   Partly Cloudy
2:15 PM 48.2 °F - 32.0 °F 54% 30.01 in 10.0 mi WSW 8.1 mph - N/A   Partly Cloudy
2:35 PM 48.2 °F - 32.0 °F 54% 30.02 in 10.0 mi WSW 10.4 mph 18.4 mph N/A   Partly Cloudy
2:55 PM 48.2 °F - 32.0 °F 54% 30.03 in 10.0 mi WSW 10.4 mph 16.1 mph N/A   Partly Cloudy
3:15 PM 48.2 °F - 32.0 °F 54% 30.04 in 10.0 mi West 8.1 mph - N/A   Clear
3:35 PM 48.2 °F - 32.0 °F 54% 30.05 in 10.0 mi SW 8.1 mph 16.1 mph N/A   Clear
3:55 PM 48.2 °F - 32.0 °F 54% 30.06 in 10.0 mi WSW 4.6 mph - N/A   Clear
4:15 PM 48.2 °F - 32.0 °F 54% 30.07 in 10.0 mi WSW 4.6 mph - N/A   Scattered Clouds
4:35 PM 46.4 °F 45.2 °F 32.0 °F 57% 30.08 in 9.0 mi West 3.5 mph - N/A   Mostly Cloudy
4:55 PM 46.4 °F - 35.6 °F 66% 30.09 in 10.0 mi Calm Calm - N/A   Mostly Cloudy
5:15 PM 46.4 °F 45.2 °F 33.8 °F 62% 30.09 in 10.0 mi West 3.5 mph - N/A   Overcast
5:35 PM 46.4 °F 43.5 °F 32.0 °F 57% 30.10 in 10.0 mi SW 5.8 mph - N/A   Mostly Cloudy
5:55 PM 46.4 °F 43.5 °F 32.0 °F 57% 30.11 in 10.0 mi WSW 5.8 mph - N/A   Mostly Cloudy
6:15 PM 46.4 °F 42.9 °F 32.0 °F 57% 30.12 in 10.0 mi SW 6.9 mph - N/A   Mostly Cloudy
6:55 PM 44.6 °F - 32.0 °F 61% 30.14 in 10.0 mi Calm Calm - N/A   Mostly Cloudy
7:15 PM 44.6 °F 41.4 °F 32.0 °F 61% 30.15 in 10.0 mi SW 5.8 mph - N/A   Partly Cloudy
7:35 PM 44.6 °F 40.2 °F 32.0 °F 61% 30.16 in 10.0 mi SSW 8.1 mph - N/A   Scattered Clouds
7:55 PM 44.6 °F 41.4 °F 32.0 °F 61% 30.17 in 10.0 mi SSW 5.8 mph - N/A   Mostly Cloudy
8:15 PM 44.6 °F 41.4 °F 32.0 °F 61% 30.18 in 10.0 mi SSW 5.8 mph - N/A   Scattered Clouds
8:35 PM 44.6 °F - 32.0 °F 61% 30.19 in 10.0 mi Calm Calm - N/A   Scattered Clouds
8:55 PM 42.8 °F 39.3 °F 32.0 °F 66% 30.20 in 10.0 mi SSW 5.8 mph - N/A   Scattered Clouds
9:15 PM 42.8 °F 38.6 °F 32.0 °F 66% 30.21 in 10.0 mi South 6.9 mph - N/A   Scattered Clouds
9:35 PM 42.8 °F 38.6 °F 32.0 °F 66% 30.22 in 10.0 mi SSW 6.9 mph - N/A   Scattered Clouds
10:15 PM 41.0 °F 39.0 °F 32.0 °F 70% 30.22 in 10.0 mi SSW 3.5 mph - N/A   Scattered Clouds
10:35 PM 39.2 °F - 32.0 °F 75% 30.23 in 10.0 mi Calm Calm - N/A   Clear
10:55 PM 39.2 °F - 32.0 °F 75% 30.23 in 10.0 mi Calm Calm - N/A   Clear
11:15 PM 37.4 °F 32.8 °F 32.0 °F 81% 30.24 in 10.0 mi SSW 5.8 mph - N/A   Clear
11:35 PM 39.2 °F 37.0 °F 33.8 °F 81% 30.25 in 10.0 mi South 3.5 mph - N/A   Clear
11:55 PM 39.2 °F - 33.8 °F 81% 30.25 in 10.0 mi North - - N/A   Clear